sat.trackr.live / text

‹ back to catalog

GLOBALSTAR M085

NORAD 37742 · 2011-033D

PAYLOAD ACTIVE UNKNOWN

§ Identity

Operator
Country
GLOB
Launch date
2011-07-13
Launch site
TYMSC
Launch vehicle
Mass (kg)
RCS (m²)
5.00

Purposes: comms

External: N2YO · Heavens-Above · Gunter

§ Orbital elements

Epoch: 2026-09-20T01:00:49.967136Z

Period
114.08 min
Inclination
52.0120°
Eccentricity
0.0000406
Mean motion
12.62265340 rev/d
Perigee alt
1,413.3 km
Apogee alt
1,413.9 km
Semi-major
7,791.7 km
B*
1.9506e-5
RAAN
264.5122°
Arg perigee
111.2856°
Mean anomaly
266.2085°
Rev number
70,177

§ Raw data

GLOBALSTAR M0851 37742U 11033D   26263.04224499 -.00000100  00000+0  19506-4 0  99902 37742  52.0120 264.5122 0000406 111.2856 266.2085 12.62265340701773

JSON: /api/v1/satellites/37742 · /tle

For live sub-satellite position, see the globe view (requires WebGL).

§ Visibility from observer

Set your observer location to see the next 7 days of passes ≥ 10°. The values pass through the URL so the page stays shareable.

No JS? Fill the form by hand. The geolocation button needs JavaScript.